�N����,����,�~����,�C��,���x,�C��,����,���ϕ���,�ő�u�ԕ���,�ő厞����,���˗�,�I�_���x,�n�����x,�ő啗���N��,DTYPE
"24/01/17","00:10",0.0,3.2,74.6,1025.1,318.4,2.5,4.9,330.7,0.00,-0.8,6.0,"00:00:26",1
"24/01/17","00:20",0.0,3.2,75.1,1025.3,321.8,3.0,6.0,311.7,0.00,-0.7,6.3,"00:12:48",1
"24/01/17","00:30",0.0,3.1,75.4,1025.1,317.3,3.1,4.2,320.7,0.00,-0.8,6.3,"00:27:52",1
"24/01/17","00:40",0.0,3.0,75.8,1025.1,327.0,3.4,5.0,314.8,0.00,-0.8,6.2,"00:35:08",1
"24/01/17","00:50",0.0,2.8,76.4,1025.3,328.9,3.4,5.1,342.3,0.00,-0.9,6.1,"00:46:58",1
"24/01/17","01:00",0.0,2.9,76.7,1024.9,324.7,4.1,6.5,310.5,0.00,-0.7,6.1,"00:56:30",1
"24/01/17","01:10",0.0,2.6,77.3,1025.1,325.0,3.2,4.4,325.8,0.00,-0.9,6.3,"01:05:20",1
"24/01/17","01:20",0.0,2.3,77.9,1024.6,330.3,2.5,3.6,329.4,0.00,-1.1,6.0,"01:14:08",1
"24/01/17","01:30",0.0,2.1,78.8,1024.1,326.6,2.1,3.6,338.4,0.00,-1.2,6.2,"01:21:36",1
"24/01/17","01:40",0.0,1.6,79.8,1024.4,330.5,1.3,2.2,310.7,0.00,-1.5,6.1,"01:30:24",1
"24/01/17","01:50",0.0,1.3,80.7,1024.1,322.1,1.7,2.6,336.8,0.00,-1.6,5.9,"01:46:16",1
"24/01/17","02:00",0.0,0.9,81.6,1024.1,322.8,1.7,2.2,340.8,0.00,-1.8,6.0,"01:51:36",1
"24/01/17","02:10",0.0,0.7,82.8,1024.4,308.1,1.8,2.8,305.8,0.00,-1.8,6.1,"02:08:40",1
"24/01/17","02:20",0.0,0.4,83.9,1024.1,312.3,1.6,2.6,309.5,0.00,-2.0,6.0,"02:10:24",1
"24/01/17","02:30",0.0,0.0,85.0,1024.4,316.6,1.3,2.4,317.9,0.00,-2.2,5.9,"02:25:36",1
"24/01/17","02:40",0.0,-0.3,86.1,1024.1,290.1,0.6,1.7,303.4,0.00,-2.3,5.9,"02:38:00",1
"24/01/17","02:50",0.0,-0.6,87.1,1023.7,318.5,1.5,2.1,333.2,0.00,-2.4,5.8,"02:48:08",1
"24/01/17","03:00",0.0,-0.8,87.9,1023.4,322.4,1.5,1.9,322.5,0.00,-2.5,5.8,"02:50:48",1
"24/01/17","03:10",0.0,-0.8,88.8,1023.4,316.6,1.5,2.7,324.4,0.00,-2.4,5.7,"03:09:28",1
"24/01/17","03:20",0.0,-0.5,89.3,1023.4,325.2,1.5,2.9,333.1,0.00,-2.0,5.8,"03:11:20",1
"24/01/17","03:30",0.0,-0.8,89.8,1023.2,306.1,1.1,1.7,320.8,0.00,-2.2,5.7,"03:26:16",1
"24/01/17","03:40",0.0,-1.0,90.3,1023.2,289.1,0.6,1.1,284.9,0.00,-2.3,5.7,"03:30:16",1
"24/01/17","03:50",0.0,-1.2,90.8,1023.2,285.2,0.8,1.7,315.2,0.00,-2.5,5.7,"03:47:36",1
"24/01/17","04:00",0.0,-1.4,91.3,1023.0,290.6,1.2,2.0,314.1,0.00,-2.6,5.7,"03:52:24",1
"24/01/17","04:10",0.0,-1.7,91.7,1022.7,308.9,1.7,2.1,316.5,0.00,-2.8,5.5,"04:04:56",1
"24/01/17","04:20",0.0,-1.7,92.2,1022.7,318.9,2.0,2.7,330.8,0.00,-2.8,5.5,"04:19:44",1
"24/01/17","04:30",0.0,-2.0,92.5,1022.7,321.0,1.8,2.7,320.3,0.00,-3.0,5.4,"04:22:16",1
"24/01/17","04:40",0.0,-1.6,92.9,1022.7,293.6,2.0,2.7,328.7,0.00,-2.6,5.5,"04:31:44",1
"24/01/17","04:50",0.0,-1.5,93.1,1023.0,309.0,1.8,2.4,318.3,0.00,-2.4,5.4,"04:47:12",1
"24/01/17","05:00",0.0,-1.7,93.3,1022.7,308.8,1.8,2.4,320.7,0.00,-2.6,5.3,"04:51:44",1
"24/01/17","05:10",0.0,-1.9,93.8,1023.2,308.2,1.5,2.0,318.8,0.00,-2.7,5.3,"05:08:08",1
"24/01/17","05:20",0.0,-2.2,94.1,1023.0,316.6,2.2,2.9,322.9,0.00,-3.0,5.1,"05:14:32",1
"24/01/17","05:30",0.0,-2.2,94.5,1023.2,319.5,1.7,2.8,323.2,0.00,-2.9,5.0,"05:20:08",1
"24/01/17","05:40",0.0,-2.6,94.6,1023.2,297.1,1.7,2.1,316.0,0.00,-3.3,5.1,"05:39:12",1
"24/01/17","05:50",0.0,-2.5,94.9,1023.2,304.1,1.5,1.9,311.0,0.00,-3.2,5.0,"05:40:26",1
"24/01/17","06:00",0.0,-2.7,95.1,1023.2,303.9,2.0,2.6,318.9,0.00,-3.3,5.1,"05:59:22",1
"24/01/17","06:10",0.0,-2.0,95.5,1023.2,321.4,2.5,3.6,330.2,0.00,-2.6,5.1,"06:09:32",1
"24/01/17","06:20",0.0,-1.4,95.6,1023.7,322.9,2.2,3.3,332.7,0.00,-2.0,5.0,"06:13:28",1
"24/01/17","06:30",0.0,-0.6,95.5,1024.1,331.1,2.7,4.7,336.0,0.00,-1.2,5.1,"06:24:24",1
"24/01/17","06:40",0.0,-0.4,95.4,1024.1,330.1,2.2,4.2,335.6,0.00,-1.0,4.8,"06:30:40",1
"24/01/17","06:50",0.0,-0.4,95.4,1024.1,331.0,2.2,3.2,337.0,0.00,-1.0,4.7,"06:40:32",1
"24/01/17","07:00",0.0,-0.3,95.5,1024.1,330.3,1.7,3.7,338.0,0.00,-0.9,4.9,"06:50:24",1
"24/01/17","07:10",0.0,-0.5,95.4,1024.1,324.6,1.6,2.0,342.3,0.00,-1.1,4.7,"07:02:00",1
"24/01/17","07:20",0.0,-0.8,95.5,1023.9,329.0,1.8,2.5,333.8,0.00,-1.4,4.8,"07:12:16",1
"24/01/17","07:30",0.0,-1.2,95.7,1024.1,304.4,1.2,2.1,318.0,0.00,-1.8,4.8,"07:20:24",1
"24/01/17","07:40",0.0,-1.1,95.8,1024.4,250.7,0.8,1.6,263.2,0.00,-1.6,4.7,"07:37:44",1
"24/01/17","07:50",0.0,-0.7,95.9,1023.9,296.6,1.6,1.9,314.7,0.02,-1.2,4.7,"07:42:56",1
"24/01/17","08:00",0.0,-0.2,95.8,1023.9,320.5,1.8,2.1,329.7,0.04,-0.7,4.7,"07:53:54",1
"24/01/17","08:10",0.0,0.3,95.6,1024.4,254.5,0.8,1.4,251.5,0.06,-0.3,4.7,"08:09:00",1
"24/01/17","08:20",0.0,0.7,95.6,1024.4,258.2,1.6,2.5,253.1,0.08,0.1,4.5,"08:12:32",1
"24/01/17","08:30",0.0,1.5,95.4,1024.6,302.1,1.2,2.1,318.2,0.11,0.9,4.6,"08:23:04",1
"24/01/17","08:40",0.0,2.0,95.0,1024.6,304.8,1.6,2.8,319.3,0.14,1.3,4.7,"08:33:44",1
"24/01/17","08:50",0.0,2.2,94.5,1025.1,258.8,0.8,1.4,288.6,0.17,1.4,4.9,"08:40:08",1
"24/01/17","09:00",0.0,2.4,94.2,1025.1,252.4,0.7,1.4,312.0,0.20,1.6,4.4,"08:54:40",1
"24/01/17","09:10",0.0,2.3,93.9,1025.6,180.0,0.6,1.3,125.5,0.22,1.5,4.7,"09:05:20",1
"24/01/17","09:20",0.0,3.0,93.1,1025.3,267.8,1.1,1.8,300.4,0.25,2.0,4.7,"09:18:08",1
"24/01/17","09:30",0.0,3.4,91.5,1025.6,250.3,1.0,1.7,241.0,0.28,2.2,4.7,"09:25:20",1
"24/01/17","09:40",0.0,3.8,90.0,1026.3,248.3,0.7,1.7,171.6,0.30,2.4,4.8,"09:37:04",1
"24/01/17","09:50",0.0,4.0,87.7,1026.3,180.1,1.1,2.7,130.6,0.33,2.2,4.7,"09:41:04",1
"24/01/17","10:00",0.0,4.3,85.1,1026.5,177.2,0.8,2.0,165.7,0.35,2.1,4.7,"09:59:20",1
"24/01/17","10:10",0.0,4.9,82.6,1026.0,248.8,1.1,2.2,254.2,0.37,2.2,4.8,"10:09:34",1
"24/01/17","10:20",0.0,5.3,79.9,1026.0,239.7,1.6,2.9,242.9,0.39,2.2,4.8,"10:16:42",1
"24/01/17","10:30",0.0,5.8,77.4,1025.6,240.8,1.0,1.8,216.9,0.41,2.2,5.0,"10:23:12",1
"24/01/17","10:40",0.0,6.0,75.3,1025.6,238.2,1.7,3.4,229.2,0.42,2.0,5.0,"10:39:12",1
"24/01/17","10:50",0.0,6.3,73.6,1025.3,239.7,1.2,2.7,238.4,0.44,2.0,5.0,"10:47:06",1
"24/01/17","11:00",0.0,6.7,72.5,1025.1,229.4,1.1,2.5,203.7,0.45,2.2,5.3,"10:58:30",1
"24/01/17","11:10",0.0,6.9,71.6,1025.1,179.1,1.1,2.8,115.8,0.46,2.2,5.3,"11:05:12",1
"24/01/17","11:20",0.0,7.3,69.9,1024.6,235.5,1.0,2.6,186.5,0.47,2.2,5.2,"11:17:00",1
"24/01/17","11:30",0.0,7.6,68.2,1024.1,202.9,1.3,2.6,226.6,0.48,2.2,5.4,"11:25:58",1
"24/01/17","11:40",0.0,7.7,66.8,1023.9,182.5,1.1,2.1,186.9,0.49,2.0,5.6,"11:32:02",1
"24/01/17","11:50",0.0,7.6,66.7,1024.1,131.7,0.8,2.1,156.4,0.49,1.8,5.4,"11:41:24",1
"24/01/17","12:00",0.0,8.2,65.6,1023.4,230.1,1.2,2.7,238.0,0.50,2.2,5.7,"11:59:38",1
"24/01/17","12:10",0.0,8.5,63.6,1023.2,207.5,1.3,3.2,234.2,0.50,2.0,5.9,"12:08:36",1
"24/01/17","12:20",0.0,8.9,62.8,1023.4,207.4,1.1,2.4,117.9,0.49,2.2,6.0,"12:19:18",1
"24/01/17","12:30",0.0,8.9,61.5,1023.4,222.4,1.7,3.4,209.4,0.49,1.9,6.0,"12:27:16",1
"24/01/17","12:40",0.0,9.4,60.2,1022.5,138.2,1.1,1.7,200.5,0.49,2.1,6.1,"12:33:58",1
"24/01/17","12:50",0.0,9.4,60.6,1022.7,169.9,1.2,2.8,112.8,0.48,2.2,6.1,"12:43:36",1
"24/01/17","13:00",0.0,9.5,59.3,1022.7,142.9,1.5,2.5,114.1,0.48,2.0,6.2,"12:56:38",1
"24/01/17","13:10",0.0,9.8,59.1,1022.7,150.2,0.8,2.2,115.2,0.47,2.2,6.3,"13:05:08",1
"24/01/17","13:20",0.0,10.2,58.0,1022.3,223.7,1.6,2.6,251.1,0.46,2.4,6.5,"13:13:32",1
"24/01/17","13:30",0.0,10.2,56.6,1022.0,271.3,1.3,3.4,239.0,0.45,2.0,6.7,"13:20:32",1
"24/01/17","13:40",0.0,10.8,55.3,1022.0,285.9,0.8,1.7,343.6,0.43,2.2,6.7,"13:37:44",1
"24/01/17","13:50",0.0,11.1,53.6,1021.3,200.1,1.0,2.6,195.3,0.42,2.1,6.7,"13:43:20",1
"24/01/17","14:00",0.0,11.2,54.5,1021.8,224.2,1.3,2.7,152.4,0.40,2.4,7.0,"13:54:48",1
"24/01/17","14:10",0.0,11.0,53.4,1021.5,177.8,1.7,2.9,224.1,0.38,1.9,6.9,"14:08:08",1
"24/01/17","14:20",0.0,11.4,52.6,1021.5,200.8,1.5,2.6,199.2,0.37,2.1,7.3,"14:14:16",1
"24/01/17","14:30",0.0,11.5,50.5,1021.5,230.2,1.3,2.7,194.3,0.35,1.6,7.2,"14:27:50",1
"24/01/17","14:40",0.0,11.8,48.5,1021.3,219.2,1.0,2.4,245.7,0.31,1.3,7.2,"14:33:28",1
"24/01/17","14:50",0.0,11.2,49.4,1021.3,243.3,1.5,2.0,221.9,0.18,1.0,7.2,"14:41:16",1
"24/01/17","15:00",0.0,11.9,48.7,1021.3,223.4,1.0,1.8,202.2,0.28,1.5,7.4,"14:53:50",1
"24/01/17","15:10",0.0,11.9,47.0,1021.1,199.8,1.0,1.8,164.7,0.20,1.0,7.5,"15:01:12",1
"24/01/17","15:20",0.0,11.6,47.3,1020.8,171.0,1.1,1.7,167.1,0.19,0.8,7.5,"15:16:08",1
"24/01/17","15:30",0.0,12.0,46.5,1020.8,231.5,1.3,3.1,235.1,0.23,0.9,7.4,"15:24:32",1
"24/01/17","15:40",0.0,12.1,45.7,1020.8,96.7,0.7,1.8,119.7,0.18,0.8,7.4,"15:36:08",1
"24/01/17","15:50",0.0,11.8,45.5,1021.1,133.2,0.8,1.9,117.0,0.15,0.5,7.7,"15:43:20",1
"24/01/17","16:00",0.0,12.3,45.5,1020.8,310.9,0.7,1.8,328.1,0.12,0.9,7.8,"15:52:16",1
"24/01/17","16:10",0.0,12.1,43.7,1021.1,182.5,0.7,1.3,121.0,0.08,0.2,7.8,"16:00:40",1
"24/01/17","16:20",0.0,11.1,44.5,1020.8,224.8,0.8,1.4,249.8,0.01,-0.5,7.9,"16:12:42",1
"24/01/17","16:30",0.0,10.6,45.6,1020.8,260.5,1.2,1.6,241.7,0.00,-0.6,7.9,"16:26:22",1
"24/01/17","16:40",0.0,10.1,54.7,1021.1,309.2,2.0,2.7,326.7,0.00,1.4,7.7,"16:31:36",1
"24/01/17","16:50",0.0,9.5,57.7,1020.6,324.8,1.7,2.4,328.7,0.00,1.6,7.8,"16:41:44",1
"24/01/17","17:00",0.0,9.1,60.0,1020.8,301.6,1.5,2.6,321.6,0.00,1.8,7.8,"16:51:04",1
"24/01/17","17:10",0.0,8.9,61.5,1020.8,296.2,1.8,2.9,306.8,0.00,1.9,7.8,"17:03:36",1
"24/01/17","17:20",0.0,8.7,62.6,1020.8,307.3,1.2,2.0,333.2,0.00,2.0,7.7,"17:12:08",1
"24/01/17","17:30",0.0,8.7,63.4,1020.8,307.7,1.8,2.4,309.8,0.00,2.2,7.8,"17:22:32",1
"24/01/17","17:40",0.0,8.4,64.3,1020.8,322.5,1.7,2.2,321.1,0.00,2.1,7.8,"17:39:04",1
"24/01/17","17:50",0.0,8.2,65.5,1021.3,289.7,1.5,2.1,315.7,0.00,2.2,7.7,"17:40:08",1
"24/01/17","18:00",0.0,8.2,66.3,1021.3,283.0,2.0,3.1,303.9,0.00,2.3,7.8,"17:59:44",1
"24/01/17","18:10",0.0,8.1,66.5,1021.3,292.3,1.8,3.3,309.2,0.00,2.3,7.4,"18:01:20",1
"24/01/17","18:20",0.0,7.9,67.3,1021.3,294.7,1.8,2.2,309.9,0.00,2.3,7.7,"18:10:08",1
"24/01/17","18:30",0.0,7.8,67.6,1021.8,299.6,2.0,2.5,303.1,0.00,2.2,7.6,"18:20:40",1
"24/01/17","18:40",0.0,7.7,67.8,1021.8,296.1,1.8,2.4,322.5,0.00,2.2,7.5,"18:39:52",1
"24/01/17","18:50",0.0,7.6,68.1,1021.5,294.6,1.8,2.4,290.8,0.00,2.1,7.5,"18:42:40",1
"24/01/17","19:00",0.0,7.6,68.2,1021.8,302.9,2.0,2.6,319.4,0.00,2.2,7.5,"18:58:32",1
"24/01/17","19:10",0.0,7.5,68.8,1021.5,318.8,2.0,2.7,314.8,0.00,2.2,7.6,"19:00:02",1
"24/01/17","19:20",0.0,7.3,69.0,1021.8,295.2,2.0,2.6,293.6,0.00,2.0,7.7,"19:14:32",1
"24/01/17","19:30",0.0,7.2,69.0,1021.5,303.0,1.8,2.6,319.4,0.00,1.9,7.7,"19:20:56",1
"24/01/17","19:40",0.0,7.1,69.8,1021.5,305.5,2.1,2.7,309.0,0.00,2.0,7.4,"19:32:56",1
"24/01/17","19:50",0.0,7.1,70.0,1021.8,296.8,2.1,3.2,322.1,0.00,2.0,7.5,"19:49:28",1
"24/01/17","20:00",0.0,7.0,69.9,1021.5,306.6,2.1,2.8,300.5,0.00,1.9,7.7,"19:55:20",1
"24/01/17","20:10",0.0,7.0,70.4,1021.8,301.9,2.3,3.1,319.8,0.00,2.0,7.3,"20:09:20",1
"24/01/17","20:20",0.0,6.9,70.6,1021.8,303.0,2.1,3.1,322.2,0.00,2.0,7.4,"20:10:56",1
"24/01/17","20:30",0.0,6.9,70.5,1021.3,298.8,2.1,2.6,300.7,0.00,2.0,7.3,"20:27:28",1
"24/01/17","20:40",0.0,6.8,70.4,1021.3,299.4,1.6,2.2,316.7,0.00,1.8,7.4,"20:30:08",1
"24/01/17","20:50",0.0,6.7,71.0,1021.3,292.7,2.0,2.6,323.8,0.00,1.9,7.4,"20:44:16",1
"24/01/17","21:00",0.0,6.8,71.3,1021.3,306.1,2.2,3.2,307.4,0.00,2.0,7.3,"20:57:20",1
"24/01/17","21:10",0.0,6.8,71.9,1021.3,322.8,2.3,3.2,335.7,0.00,2.1,7.5,"21:02:40",1
"24/01/17","21:20",0.0,6.5,72.9,1021.1,319.6,2.0,2.9,323.8,0.00,2.0,7.5,"21:15:36",1
"24/01/17","21:30",0.0,6.4,73.6,1021.1,302.3,2.2,3.6,261.4,0.00,2.1,7.3,"21:29:54",1
"24/01/17","21:40",0.0,6.5,73.5,1021.3,272.9,2.0,3.1,263.9,0.00,2.2,7.3,"21:30:48",1
"24/01/17","21:50",0.0,6.5,72.9,1021.1,322.6,1.5,2.4,317.2,0.00,2.0,7.3,"21:49:12",1
"24/01/17","22:00",0.0,6.4,73.4,1020.8,313.6,2.0,2.7,324.2,0.00,2.0,7.3,"21:52:56",1
"24/01/17","22:10",0.0,6.3,74.1,1020.8,290.5,1.7,2.5,309.3,0.00,2.1,7.3,"22:07:44",1
"24/01/17","22:20",0.0,6.3,74.3,1020.6,293.0,1.8,2.4,304.8,0.00,2.1,7.3,"22:10:08",1
"24/01/17","22:30",0.0,6.3,74.3,1020.4,304.6,2.1,2.8,316.1,0.00,2.1,7.2,"22:28:32",1
"24/01/17","22:40",0.0,6.4,74.4,1020.6,318.3,2.5,3.7,314.1,0.00,2.2,7.4,"22:33:36",1
"24/01/17","22:50",0.0,6.2,74.7,1020.4,293.0,2.0,2.4,306.9,0.00,2.1,7.4,"22:41:04",1
"24/01/17","23:00",0.0,6.2,74.8,1020.6,302.0,2.1,2.7,326.1,0.00,2.1,7.2,"22:57:52",1
"24/01/17","23:10",0.0,6.3,74.6,1020.4,308.9,2.3,3.1,317.9,0.00,2.2,7.2,"23:06:00",1
"24/01/17","23:20",0.0,6.3,74.3,1020.1,293.5,2.2,3.6,319.0,0.00,2.1,7.2,"23:13:52",1
"24/01/17","23:30",0.0,6.4,74.1,1020.1,277.0,1.8,2.4,262.6,0.00,2.2,7.4,"23:20:16",1
"24/01/17","23:40",0.0,6.4,74.1,1020.1,303.5,2.2,2.8,319.6,0.00,2.2,7.1,"23:38:48",1
"24/01/17","23:50",0.0,6.3,74.1,1019.9,301.5,2.0,2.7,314.5,0.00,2.1,7.1,"23:41:36",1
"24/01/17","24:00",0.0,6.3,74.3,1020.1,306.1,2.1,2.9,318.4,0.00,2.1,7.1,"23:58:48",1
